• In Lithuania
  • List of Countries
  • For 7 days
  • Water Temperature
  • Satellite Maps
  • Weather Map
  • Weather Widgets
  • user-avatar
    Login

    Hourly Weather Andora

    Today, 23 October, Tuesday

    Time Temperature Precipitation Wind Pressure Humidity
    00:00 +4°C° 0 mm 2 mps 629 mmHg 64%
    01:00 +4°C° 0 mm 2 mps 629 mmHg 62%
    02:00 +4°C° 0 mm 2 mps 629 mmHg 59%
    03:00 +4°C° 0 mm 2 mps 629 mmHg 57%
    04:00 +3°C° 0 mm 2 mps 629 mmHg 57%
    05:00 +3°C° 0 mm 2 mps 629 mmHg 57%
    06:00 +3°C° 0 mm 2 mps 629 mmHg 57%
    07:00 +5°C° 0 mm 2 mps 631 mmHg 54%
    08:00 +8°C° 0 mm 2 mps 632 mmHg 50%
    09:00 +10°C° 0 mm 2 mps 633 mmHg 46%
    10:00 +12°C° 0 mm 2 mps 633 mmHg 44%
    11:00 +13°C° 0 mm 2 mps 633 mmHg 43%
    12:00 +14°C° 0 mm 2 mps 634 mmHg 41%
    13:00 +14°C° 0 mm 2 mps 633 mmHg 43%
    14:00 +13°C° 0 mm 2 mps 633 mmHg 45%
    15:00 +13°C° 0 mm 2 mps 632 mmHg 47%
    16:00 +10°C° 0 mm 2 mps 632 mmHg 55%
    17:00 +8°C° 0 mm 2 mps 631 mmHg 62%
    18:00 +5°C° 0 mm 2 mps 630 mmHg 70%
    19:00 +5°C° 0 mm 2 mps 630 mmHg 66%
    20:00 +4°C° 0 mm 2 mps 630 mmHg 61%
    21:00 +4°C° 0 mm 2 mps 630 mmHg 57%
    22:00 +4°C° 0 mm 2 mps 630 mmHg 53%
    23:00 +4°C° 0 mm 2 mps 629 mmHg 50%

    Tomorrow, 24 October, Wednesday

    Time Temperature Precipitation Wind Pressure Humidity
    00:00 +4°C° 0 mm 2 mps 629 mmHg 46%
    01:00 +4°C° 0 mm 2 mps 629 mmHg 45%
    02:00 +3°C° 0 mm 3 mps 629 mmHg 43%
    03:00 +3°C° 0 mm 3 mps 629 mmHg 42%
    04:00 +3°C° 0 mm 3 mps 629 mmHg 42%
    05:00 +3°C° 0 mm 3 mps 629 mmHg 43%
    06:00 +3°C° 0 mm 3 mps 628 mmHg 43%
    07:00 +5°C° 0 mm 3 mps 629 mmHg 40%
    08:00 +8°C° 0 mm 3 mps 630 mmHg 37%
    09:00 +10°C° 0 mm 3 mps 631 mmHg 34%
    10:00 +12°C° 0 mm 3 mps 631 mmHg 33%
    11:00 +13°C° 0 mm 3 mps 632 mmHg 31%
    12:00 +14°C° 0 mm 3 mps 632 mmHg 30%
    13:00 +14°C° 0 mm 3 mps 631 mmHg 33%
    14:00 +13°C° 0 mm 3 mps 631 mmHg 36%
    15:00 +13°C° 0 mm 3 mps 630 mmHg 39%
    16:00 +11°C° 0 mm 3 mps 629 mmHg 45%
    17:00 +9°C° 0 mm 3 mps 628 mmHg 51%
    18:00 +6°C° 0 mm 2 mps 627 mmHg 57%
    19:00 +6°C° 0 mm 2 mps 627 mmHg 57%
    20:00 +6°C° 0 mm 2 mps 627 mmHg 58%
    21:00 +6°C° 0 mm 2 mps 627 mmHg 58%
    22:00 +6°C° 0 mm 2 mps 627 mmHg 59%
    23:00 +6°C° 0 mm 2 mps 627 mmHg 60%

    Day after tomorrow, 25 October, Thursday

    Time Temperature Precipitation Wind Pressure Humidity
    00:00 +6°C° 0 mm 2 mps 627 mmHg 61%
    01:00 +6°C° 0 mm 2 mps 626 mmHg 62%
    02:00 +5°C° 0 mm 2 mps 626 mmHg 62%
    03:00 +5°C° 0 mm 2 mps 626 mmHg 63%
    04:00 +5°C° 0 mm 2 mps 626 mmHg 63%
    05:00 +5°C° 0 mm 2 mps 626 mmHg 63%
    06:00 +5°C° 0 mm 2 mps 625 mmHg 63%
    07:00 +8°C° 0 mm 1 mps 627 mmHg 57%
    08:00 +11°C° 0 mm 1 mps 628 mmHg 51%
    09:00 +13°C° 0 mm 1 mps 629 mmHg 45%
    10:00 +14°C° 0 mm 1 mps 629 mmHg 43%
    11:00 +15°C° 0 mm 1 mps 629 mmHg 41%
    12:00 +16°C° 0 mm 1 mps 629 mmHg 39%
    13:00 +15°C° 0 mm 1 mps 628 mmHg 42%
    14:00 +15°C° 0 mm 1 mps 628 mmHg 45%
    15:00 +15°C° 0 mm 1 mps 627 mmHg 48%
    16:00 +12°C° 0 mm 1 mps 626 mmHg 58%
    17:00 +10°C° 0 mm 1 mps 625 mmHg 67%
    18:00 +7°C° 0 mm 1 mps 624 mmHg 77%
    19:00 +7°C° 0 mm 1 mps 624 mmHg 76%
    20:00 +7°C° 0 mm 1 mps 624 mmHg 76%
    21:00 +7°C° 0 mm 1 mps 624 mmHg 76%
    22:00 +7°C° 0 mm 1 mps 624 mmHg 74%
    23:00 +6°C° 0 mm 1 mps 623 mmHg 72%

    26 October, Friday

    Time Temperature Precipitation Wind Pressure Humidity
    00:00 +6°C° 0 mm 1 mps 623 mmHg 71%
    01:00 +6°C° 0 mm 1 mps 623 mmHg 68%
    02:00 +6°C° 0 mm 1 mps 623 mmHg 64%
    03:00 +6°C° 0 mm 1 mps 622 mmHg 61%
    04:00 +6°C° 0 mm 1 mps 622 mmHg 58%
    05:00 +6°C° 0 mm 1 mps 622 mmHg 54%
    06:00 +6°C° 0 mm 1 mps 622 mmHg 51%
    07:00 +8°C° 0 mm 1 mps 623 mmHg 48%
    08:00 +9°C° 0 mm 1 mps 624 mmHg 45%
    09:00 +11°C° 0 mm 1 mps 625 mmHg 42%
    10:00 +12°C° 0 mm 1 mps 625 mmHg 42%
    11:00 +13°C° 0 mm 2 mps 625 mmHg 42%
    12:00 +14°C° 0 mm 2 mps 625 mmHg 42%
    13:00 +13°C° 0 mm 2 mps 625 mmHg 46%
    14:00 +13°C° 0 mm 2 mps 624 mmHg 50%
    15:00 +12°C° 0 mm 2 mps 623 mmHg 54%
    16:00 +11°C° 0 mm 1 mps 623 mmHg 63%
    17:00 +9°C° 0 mm 1 mps 622 mmHg 73%
    18:00 +7°C° 0 mm 1 mps 622 mmHg 82%
    19:00 +7°C° 0 mm 1 mps 622 mmHg 83%
    20:00 +7°C° 0 mm 1 mps 622 mmHg 84%
    21:00 +7°C° 0 mm 1 mps 622 mmHg 85%
    22:00 +7°C° 0.1 mm 1 mps 622 mmHg 86%
    23:00 +7°C° 0.1 mm 1 mps 622 mmHg 87%

    27 October, Saturday

    Time Temperature Precipitation Wind Pressure Humidity
    00:00 +6°C° 0.1 mm 1 mps 621 mmHg 88%
    01:00 +5°C° 0.8 mm 2 mps 621 mmHg 89%
    02:00 +4°C° 0.8 mm 2 mps 621 mmHg 90%
    03:00 +3°C° 0.8 mm 3 mps 621 mmHg 92%
    04:00 +2°C° 0.8 mm 3 mps 621 mmHg 92%
    05:00 +2°C° 0.8 mm 3 mps 621 mmHg 92%
    06:00 +1°C° 0.8 mm 3 mps 621 mmHg 92%
    07:00 +1°C° 0.1 mm 3 mps 621 mmHg 87%
    08:00 0°C° 0.1 mm 4 mps 621 mmHg 82%
    09:00 -1°C° 0.1 mm 4 mps 621 mmHg 77%
    10:00 0°C° 0 mm 4 mps 621 mmHg 68%
    11:00 +1°C° 0 mm 4 mps 621 mmHg 59%
    12:00 +3°C° 0 mm 4 mps 621 mmHg 51%
    13:00 +3°C° 0 mm 4 mps 621 mmHg 49%
    14:00 +3°C° 0 mm 4 mps 620 mmHg 47%
    15:00 +3°C° 0 mm 4 mps 620 mmHg 45%
    16:00 +2°C° 0 mm 3 mps 619 mmHg 53%
    17:00 0°C° 0 mm 3 mps 619 mmHg 61%
    18:00 -2°C° 0 mm 2 mps 618 mmHg 69%
    19:00 -2°C° 0.1 mm 2 mps 618 mmHg 70%
    20:00 -2°C° 0.1 mm 2 mps 618 mmHg 71%
    21:00 -2°C° 0.1 mm 2 mps 618 mmHg 73%
    22:00 -2°C° 0.1 mm 2 mps 617 mmHg 74%
    23:00 -1°C° 0.1 mm 1 mps 617 mmHg 75%

    28 October, Sunday

    Time Temperature Precipitation Wind Pressure Humidity
    00:00 -1°C° 0.1 mm 1 mps 616 mmHg 76%
    01:00 -1°C° 0.1 mm 1 mps 616 mmHg 78%
    02:00 -1°C° 0.1 mm 1 mps 616 mmHg 80%
    03:00 -2°C° 0.1 mm 1 mps 616 mmHg 82%
    04:00 -4°C° 0.2 mm 2 mps 616 mmHg 82%
    05:00 -4°C° 0.2 mm 2 mps 616 mmHg 83%
    06:00 -4°C° 0.2 mm 2 mps 617 mmHg 84%
    07:00 -4°C° 0.2 mm 2 mps 617 mmHg 80%
    08:00 -4°C° 0.2 mm 3 mps 618 mmHg 76%
    09:00 -4°C° 0.2 mm 3 mps 619 mmHg 72%
    10:00 -2°C° 0.1 mm 3 mps 619 mmHg 63%
    11:00 -2°C° 0.1 mm 3 mps 619 mmHg 54%
    12:00 -1°C° 0.1 mm 3 mps 619 mmHg 45%
    13:00 -2°C° 0 mm 4 mps 619 mmHg 45%
    14:00 -2°C° 0 mm 4 mps 619 mmHg 44%
    15:00 -2°C° 0 mm 4 mps 618 mmHg 44%
    16:00 -4°C° 0 mm 3 mps 618 mmHg 51%
    17:00 -6°C° 0 mm 3 mps 618 mmHg 58%
    18:00 -7°C° 0 mm 3 mps 617 mmHg 65%
    19:00 -7°C° 0 mm 3 mps 617 mmHg 66%
    20:00 -7°C° 0 mm 3 mps 618 mmHg 66%
    21:00 -7°C° 0 mm 4 mps 618 mmHg 67%
    22:00 -7°C° 0 mm 4 mps 618 mmHg 68%
    23:00 -8°C° 0 mm 4 mps 618 mmHg 70%

    29 October, Monday

    Time Temperature Precipitation Wind Pressure Humidity
    00:00 -8°C° 0 mm 4 mps 617 mmHg 71%
    01:00 -8°C° 0 mm 4 mps 617 mmHg 72%
    02:00 -9°C° 0 mm 4 mps 617 mmHg 73%
    03:00 -9°C° 0 mm 4 mps 617 mmHg 74%
    04:00 -9°C° 0 mm 4 mps 617 mmHg 73%
    05:00 -10°C° 0 mm 4 mps 617 mmHg 72%
    06:00 -11°C° 0 mm 5 mps 617 mmHg 71%
    07:00 -8°C° 0.1 mm 5 mps 618 mmHg 67%
    08:00 -8°C° 0.1 mm 6 mps 619 mmHg 64%
    09:00 -6°C° 0.1 mm 6 mps 619 mmHg 60%
    10:00 -5°C° 0.1 mm 6 mps 619 mmHg 58%
    11:00 -6°C° 0.1 mm 7 mps 619 mmHg 55%
    12:00 -4°C° 0.1 mm 7 mps 619 mmHg 53%
    13:00 -4°C° 0 mm 6 mps 618 mmHg 53%
    14:00 -4°C° 0 mm 6 mps 618 mmHg 54%
    15:00 -5°C° 0 mm 6 mps 618 mmHg 54%
    16:00 -6°C° 0 mm 6 mps 617 mmHg 59%
    17:00 -7°C° 0 mm 5 mps 617 mmHg 64%
    18:00 -8°C° 0 mm 4 mps 616 mmHg 69%
    19:00 -8°C° 0 mm 4 mps 616 mmHg 70%
    20:00 -8°C° 0 mm 4 mps 616 mmHg 71%
    21:00 -8°C° 0 mm 4 mps 616 mmHg 72%
    22:00 -8°C° 0 mm 4 mps 616 mmHg 72%
    23:00 -7°C° 0 mm 3 mps 615 mmHg 72%
    Show more